When you browse on this site, cookies collect data to enhance your experience and personalize the content and advertising you see.
Visit our Privacy Policy to learn more. By continuing to use the site, you agree to this use of cookies and data.
  • In Austria
  • List of Countries
  • For 7 days
  • Water Temperature
  • Weather Map
  • News
  • Weather Widgets
  • user-avatar
    Login

    Hourly Weather Dedovo

    Today, 22 November, Friday

    Time Temperature Precipitation Wind Pressure Humidity
    00:00 -16°C° 0 mm 4 mps 773 mmHg 74%
    01:00 -15°C° 0 mm 3 mps 772 mmHg 73%
    02:00 -15°C° 0 mm 3 mps 772 mmHg 72%
    03:00 -15°C° 0 mm 3 mps 772 mmHg 70%
    04:00 -16°C° 0 mm 3 mps 772 mmHg 70%
    05:00 -16°C° 0 mm 3 mps 772 mmHg 71%
    06:00 -16°C° 0 mm 3 mps 771 mmHg 71%
    07:00 -16°C° 0 mm 3 mps 771 mmHg 71%
    08:00 -15°C° 0 mm 3 mps 771 mmHg 69%
    09:00 -15°C° 0 mm 4 mps 771 mmHg 68%
    10:00 -14°C° 0 mm 4 mps 771 mmHg 66%
    11:00 -12°C° 0 mm 4 mps 771 mmHg 65%
    12:00 -11°C° 0 mm 4 mps 770 mmHg 64%
    13:00 -11°C° 0 mm 4 mps 770 mmHg 63%
    14:00 -11°C° 0 mm 4 mps 770 mmHg 66%
    15:00 -11°C° 0 mm 4 mps 769 mmHg 69%
    16:00 -10°C° 0 mm 3 mps 769 mmHg 73%
    17:00 -12°C° 0 mm 3 mps 769 mmHg 74%
    18:00 -12°C° 0 mm 4 mps 769 mmHg 74%
    19:00 -12°C° 0 mm 4 mps 768 mmHg 75%
    20:00 -12°C° 0 mm 4 mps 768 mmHg 77%
    21:00 -13°C° 0 mm 3 mps 768 mmHg 80%
    22:00 -13°C° 0 mm 3 mps 768 mmHg 82%
    23:00 -13°C° 0 mm 3 mps 768 mmHg 84%

    Tomorrow, 23 November, Saturday

    Time Temperature Precipitation Wind Pressure Humidity
    00:00 -13°C° 0 mm 3 mps 768 mmHg 87%
    01:00 -13°C° 0 mm 3 mps 768 mmHg 89%
    02:00 -13°C° 0 mm 3 mps 768 mmHg 90%
    03:00 -13°C° 0 mm 3 mps 768 mmHg 91%
    04:00 -13°C° 0 mm 3 mps 768 mmHg 93%
    05:00 -13°C° 0 mm 3 mps 768 mmHg 93%
    06:00 -13°C° 0 mm 3 mps 767 mmHg 94%
    07:00 -13°C° 0 mm 3 mps 767 mmHg 94%
    08:00 -10°C° 0 mm 2 mps 767 mmHg 93%
    09:00 -9°C° 0 mm 2 mps 767 mmHg 91%
    10:00 -8°C° 0 mm 2 mps 767 mmHg 89%
    11:00 -7°C° 0 mm 2 mps 767 mmHg 87%
    12:00 -6°C° 0 mm 2 mps 766 mmHg 85%
    13:00 -5°C° 0 mm 2 mps 766 mmHg 82%
    14:00 -6°C° 0 mm 2 mps 766 mmHg 82%
    15:00 -7°C° 0 mm 2 mps 766 mmHg 81%
    16:00 -8°C° 0 mm 2 mps 766 mmHg 80%
    17:00 -8°C° 0 mm 2 mps 766 mmHg 77%
    18:00 -9°C° 0 mm 2 mps 765 mmHg 74%
    19:00 -10°C° 0 mm 3 mps 765 mmHg 71%
    20:00 -12°C° 0 mm 3 mps 765 mmHg 71%
    21:00 -12°C° 0 mm 3 mps 765 mmHg 71%
    22:00 -12°C° 0 mm 3 mps 765 mmHg 71%
    23:00 -12°C° 0 mm 3 mps 765 mmHg 73%

    Day after tomorrow, 24 November, Sunday

    Time Temperature Precipitation Wind Pressure Humidity
    00:00 -13°C° 0 mm 3 mps 764 mmHg 74%
    01:00 -13°C° 0 mm 3 mps 764 mmHg 76%
    02:00 -13°C° 0 mm 3 mps 764 mmHg 78%
    03:00 -13°C° 0 mm 3 mps 764 mmHg 80%
    04:00 -13°C° 0 mm 3 mps 764 mmHg 82%
    05:00 -13°C° 0 mm 3 mps 764 mmHg 84%
    06:00 -13°C° 0 mm 3 mps 764 mmHg 87%
    07:00 -13°C° 0 mm 3 mps 764 mmHg 89%
    08:00 -13°C° 0 mm 3 mps 764 mmHg 88%
    09:00 -12°C° 0 mm 3 mps 764 mmHg 87%
    10:00 -11°C° 0 mm 4 mps 764 mmHg 86%
    11:00 -10°C° 0 mm 4 mps 764 mmHg 84%
    12:00 -10°C° 0 mm 4 mps 764 mmHg 83%
    13:00 -9°C° 0 mm 4 mps 764 mmHg 82%
    14:00 -8°C° 0 mm 3 mps 764 mmHg 84%
    15:00 -9°C° 0 mm 3 mps 764 mmHg 87%
    16:00 -9°C° 0 mm 3 mps 764 mmHg 90%
    17:00 -10°C° 0 mm 3 mps 764 mmHg 91%
    18:00 -10°C° 0 mm 3 mps 764 mmHg 93%
    19:00 -10°C° 0 mm 3 mps 764 mmHg 94%
    20:00 -10°C° 0 mm 3 mps 764 mmHg 94%
    21:00 -12°C° 0 mm 3 mps 764 mmHg 94%
    22:00 -12°C° 0 mm 3 mps 764 mmHg 94%
    23:00 -10°C° 0 mm 2 mps 764 mmHg 94%

    25 November, Monday

    Time Temperature Precipitation Wind Pressure Humidity
    00:00 -10°C° 0 mm 2 mps 764 mmHg 94%
    01:00 -10°C° 0 mm 2 mps 764 mmHg 94%
    02:00 -10°C° 0 mm 2 mps 764 mmHg 94%
    03:00 -10°C° 0 mm 2 mps 764 mmHg 94%
    04:00 -10°C° 0 mm 2 mps 764 mmHg 94%
    05:00 -10°C° 0 mm 2 mps 764 mmHg 94%
    06:00 -10°C° 0 mm 2 mps 764 mmHg 94%
    07:00 -10°C° 0 mm 2 mps 764 mmHg 94%
    08:00 -10°C° 0 mm 2 mps 764 mmHg 92%
    09:00 -9°C° 0 mm 2 mps 764 mmHg 91%
    10:00 -8°C° 0 mm 1 mps 764 mmHg 89%
    11:00 -7°C° 0 mm 1 mps 764 mmHg 87%
    12:00 -6°C° 0 mm 1 mps 764 mmHg 84%
    13:00 -4°C° 0 mm 1 mps 763 mmHg 82%
    14:00 -6°C° 0 mm 1 mps 763 mmHg 84%
    15:00 -6°C° 0 mm 1 mps 763 mmHg 87%
    16:00 -7°C° 0 mm 1 mps 763 mmHg 89%
    17:00 -7°C° 0 mm 1 mps 763 mmHg 90%
    18:00 -8°C° 0 mm 1 mps 763 mmHg 91%
    19:00 -8°C° 0 mm 1 mps 763 mmHg 92%
    20:00 -8°C° 0 mm 1 mps 763 mmHg 93%
    21:00 -8°C° 0 mm 1 mps 763 mmHg 93%
    22:00 -8°C° 0 mm 1 mps 763 mmHg 93%
    23:00 -8°C° 0 mm 1 mps 763 mmHg 93%

    26 November, Tuesday

    Time Temperature Precipitation Wind Pressure Humidity
    00:00 -8°C° 0 mm 1 mps 763 mmHg 93%
    01:00 -8°C° 0 mm 1 mps 763 mmHg 93%
    02:00 -8°C° 0 mm 1 mps 762 mmHg 93%
    03:00 -8°C° 0 mm 1 mps 762 mmHg 92%
    04:00 -8°C° 0 mm 1 mps 762 mmHg 92%
    05:00 -8°C° 0 mm 1 mps 762 mmHg 89%
    06:00 -9°C° 0 mm 1 mps 762 mmHg 87%
    07:00 -9°C° 0 mm 1 mps 762 mmHg 84%
    08:00 -8°C° 0 mm 1 mps 762 mmHg 80%
    09:00 -8°C° 0 mm 1 mps 762 mmHg 76%
    10:00 -8°C° 0 mm 1 mps 763 mmHg 72%
    11:00 -8°C° 0 mm 2 mps 762 mmHg 67%
    12:00 -7°C° 0 mm 2 mps 762 mmHg 62%
    13:00 -6°C° 0 mm 2 mps 762 mmHg 57%
    14:00 -6°C° 0 mm 2 mps 762 mmHg 58%
    15:00 -7°C° 0 mm 2 mps 762 mmHg 59%
    16:00 -7°C° 0 mm 2 mps 762 mmHg 61%
    17:00 -8°C° 0 mm 2 mps 762 mmHg 62%
    18:00 -8°C° 0 mm 2 mps 762 mmHg 63%
    19:00 -9°C° 0 mm 2 mps 762 mmHg 65%
    20:00 -9°C° 0 mm 2 mps 762 mmHg 67%
    21:00 -9°C° 0 mm 2 mps 762 mmHg 68%
    22:00 -8°C° 0 mm 1 mps 762 mmHg 70%
    23:00 -10°C° 0 mm 2 mps 762 mmHg 74%

    27 November, Wednesday

    Time Temperature Precipitation Wind Pressure Humidity
    00:00 -10°C° 0 mm 2 mps 762 mmHg 78%
    01:00 -10°C° 0 mm 2 mps 762 mmHg 82%
    02:00 -10°C° 0 mm 2 mps 762 mmHg 85%
    03:00 -10°C° 0 mm 2 mps 762 mmHg 87%
    04:00 -10°C° 0 mm 2 mps 762 mmHg 89%
    05:00 -10°C° 0 mm 2 mps 762 mmHg 90%
    06:00 -9°C° 0 mm 1 mps 762 mmHg 91%
    07:00 -9°C° 0 mm 1 mps 762 mmHg 92%
    08:00 -10°C° 0 mm 2 mps 762 mmHg 91%
    09:00 -9°C° 0 mm 2 mps 762 mmHg 90%
    10:00 -8°C° 0 mm 2 mps 763 mmHg 89%
    11:00 -7°C° 0 mm 2 mps 762 mmHg 85%
    12:00 -6°C° 0 mm 2 mps 762 mmHg 81%
    13:00 -6°C° 0 mm 3 mps 762 mmHg 77%
    14:00 -7°C° 0 mm 3 mps 762 mmHg 78%
    15:00 -7°C° 0 mm 3 mps 762 mmHg 80%
    16:00 -7°C° 0 mm 2 mps 762 mmHg 81%
    17:00 -7°C° 0 mm 2 mps 762 mmHg 82%
    18:00 -8°C° 0 mm 2 mps 762 mmHg 84%
    19:00 -8°C° 0 mm 2 mps 762 mmHg 85%
    20:00 -8°C° 0 mm 2 mps 762 mmHg 85%
    21:00 -8°C° 0 mm 2 mps 762 mmHg 84%
    22:00 -8°C° 0 mm 2 mps 762 mmHg 84%
    23:00 -8°C° 0 mm 2 mps 762 mmHg 85%
    Show more